Location: Newark
(45.9925°N, 0.1936°E)
Time: 05:03:18
(UTC+00:00)

OTV 5 (USA 277) - Visible Passes

Search period start: 22 August 2019 00:00
Search period end: 01 September 2019 00:00
Orbit: 305 x 329 km, 54.5° (Epoch: 20 August)

Date Brightness Start Highest point End Pass type
(mag) Time Alt. Az. Time Alt. Az. Time Alt. Az.
22 Aug ? 02:41:20 23° ENE 02:41:20 23° ENE 02:42:45 10° E visible
22 Aug ? 04:12:19 10° WNW 04:14:32 24° SW 04:16:46 10° SSE visible
23 Aug ? 02:57:33 10° ESE 02:57:33 10° ESE 02:57:34 10° ESE visible
23 Aug ? 04:28:35 10° SW 04:28:51 10° SW 04:29:09 10° SW visible
23 Aug ? 20:47:48 10° SW 20:48:23 15° SW 20:48:23 15° SW visible
24 Aug ? 19:29:12 10° S 19:30:58 16° SE 19:32:44 10° E visible
24 Aug ? 21:02:24 10° WSW 21:04:09 32° W 21:04:09 32° W visible
25 Aug ? 19:42:47 10° SSW 19:45:21 39° SE 19:47:53 10° ENE visible
25 Aug ? 21:17:23 10° W 21:19:16 24° NW 21:19:16 24° NW visible
26 Aug ? 19:57:09 10° WSW 19:59:51 77° NNW 20:02:32 10° NE visible
26 Aug ? 21:32:35 10° WNW 21:33:53 16° NNW 21:33:53 16° NNW visible
27 Aug ? 20:11:57 10° W 20:14:29 34° NNW 20:17:00 10° NE visible
27 Aug ? 21:47:49 10° NW 21:48:14 12° NW 21:48:14 12° NW visible
28 Aug ? 20:27:03 10° WNW 20:29:13 21° NNW 20:31:22 10° NE visible
29 Aug ? 20:42:18 10° NW 20:44:02 15° N 20:45:30 11° NNE visible
30 Aug ? 19:21:34 10° W 19:23:56 26° NNW 19:26:18 10° NE visible
30 Aug ? 20:57:26 10° NW 20:58:56 14° N 20:59:26 13° N visible
31 Aug ? 19:36:46 10° WNW 19:38:44 18° NNW 19:40:41 10° NNE visible
31 Aug ? 21:12:16 10° NNW 21:13:20 14° N 21:13:20 14° N visible
